Location: Bangkok
(13.7500°N, 100.5170°E)
Time: 08:39:04
(UTC+07:00)

Hubble Space Telescope - Visible Passes

Search period start: 07 March 2015 00:00
Search period end: 17 March 2015 00:00
Orbit: 543 x 547 km, 28.5° (Epoch: 05 March)

Date Brightness Start Highest point End Pass type
(mag) Time Alt. Az. Time Alt. Az. Time Alt. Az.
07 Mar 2.0 05:40:55 12° NW 05:44:29 35° NNE 05:48:20 10° E visible
08 Mar 1.5 05:33:22 17° NW 05:36:20 48° NNE 05:40:22 10° E visible
09 Mar 1.0 05:25:54 26° NW 05:28:09 68° NNE 05:32:17 10° ESE visible
09 Mar 2.9 19:07:03 10° S 19:09:09 14° SSE 19:10:58 11° ESE visible
09 Mar 3.9 20:46:14 10° WSW 20:46:29 11° WSW 20:46:29 11° WSW visible
10 Mar 0.7 05:18:28 39° WNW 05:19:56 85° SSW 05:24:06 10° ESE visible
10 Mar 2.5 18:57:55 10° SSW 19:00:56 20° SSE 19:03:41 11° ESE visible
10 Mar 3.4 20:38:01 10° WSW 20:39:12 18° WSW 20:39:12 18° WSW visible
11 Mar 0.8 05:11:06 52° WSW 05:11:42 58° SSW 05:15:48 10° SE visible
11 Mar 2.0 18:49:07 10° SSW 18:52:41 28° SSE 18:56:18 10° E visible
11 Mar 2.9 20:29:54 10° WSW 20:31:54 26° W 20:31:54 26° W visible
12 Mar 1.5 05:03:47 39° SSW 05:03:47 39° SSW 05:07:22 10° SE visible
12 Mar 1.5 18:40:32 10° SW 18:44:27 40° SSE 18:48:22 10° E visible
12 Mar 2.5 20:21:53 10° W 20:24:35 31° WNW 20:24:35 31° WNW visible
13 Mar 2.4 04:56:28 23° S 04:56:28 23° S 04:58:47 10° SSE visible
13 Mar 2.4 20:13:57 10° W 20:17:12 29° NNW 20:17:12 29° NNW visible
14 Mar 3.2 04:49:10 13° S 04:49:10 13° S 04:49:58 10° SSE visible
14 Mar 2.6 20:06:06 10° WNW 20:09:29 23° NNW 20:09:47 23° NNW visible
15 Mar 2.8 19:58:21 10° WNW 20:01:22 19° NNW 20:02:17 18° N visible
16 Mar 3.1 19:50:39 10° NW 19:53:16 16° NNW 19:54:44 14° N visible
